This is the latest recevied weather packets stored in our database for station/object SP8EBC-11. If no packets are shown the sender has not sent any weather packets the latest 1 day(s).
| Time | Temp. | Humidity | Pressure | Rain* | Wind** | Luminosity | Snow |
|---|---|---|---|---|---|---|---|
| 1777976255 | 20.56° C | 62% | 992.9 hPa | - | 0.89 m/s, 286° | - | - |
| 1777976135 | 20.56° C | 62% | 992.9 hPa | - | 0.45 m/s, 1° | - | - |
| 1777976015 | 20° C | 62% | 993.1 hPa | - | 0.45 m/s, 50° | - | - |
| 1777975895 | 20° C | 62% | 993.2 hPa | - | 0.45 m/s, 48° | - | - |
| 1777975775 | 20° C | 63% | 993.4 hPa | - | 0.45 m/s, 48° | - | - |
| 1777975655 | 20° C | 63% | 993.5 hPa | - | 0.45 m/s, 50° | - | - |
| 1777975535 | 20° C | 63% | 993.6 hPa | - | 0.45 m/s, 64° | - | - |
| 1777975415 | 20° C | 63% | 993.6 hPa | - | 0.45 m/s, 84° | - | - |
| 1777975295 | 20° C | 63% | 993.4 hPa | - | 1.34 m/s, 94° | - | - |
| 1777975175 | 20° C | 63% | 993.3 hPa | - | 1.34 m/s, 98° | - | - |
| 1777975055 | 20° C | 63% | 993.2 hPa | - | 1.34 m/s, 82° | - | - |
| 1777974934 | 20° C | 63% | 993.2 hPa | - | 0.89 m/s, 220° | - | - |
| 1777974815 | 19.44° C | 63% | 993.3 hPa | - | 0.45 m/s, 249° | - | - |
| 1777974695 | 19.44° C | 63% | 993.3 hPa | - | 0.45 m/s, 218° | - | - |
| 1777974575 | 19.44° C | 63% | 993.4 hPa | - | 0.45 m/s, 175° | - | - |
| 1777974454 | 19.44° C | 63% | 993.5 hPa | - | 0.45 m/s, 130° | - | - |
| 1777974334 | 19.44° C | 64% | 993.6 hPa | - | 0.89 m/s, 125° | - | - |
| 1777974214 | 19.44° C | 64% | 993.5 hPa | - | 1.34 m/s, 129° | - | - |
| 1777974094 | 19.44° C | 64% | 993.5 hPa | - | 0.89 m/s, 132° | - | - |
| 1777973974 | 19.44° C | 64% | 993.5 hPa | - | 0.89 m/s, 146° | - | - |
| 1777973854 | 19.44° C | 64% | 993.5 hPa | - | 1.34 m/s, 172° | - | - |
| 1777973734 | 18.89° C | 64% | 993.5 hPa | - | 1.79 m/s, 157° | - | - |
| 1777973614 | 18.89° C | 64% | 993.6 hPa | - | 1.34 m/s, 148° | - | - |
| 1777973494 | 18.89° C | 64% | 993.8 hPa | - | 1.79 m/s, 155° | - | - |
| 1777973365 | 18.89° C | 64% | 993.9 hPa | - | 1.34 m/s, 129° | - | - |
* Rain since midnight (hover to see other rain measurements)
** Current wind speed in m/s (hover to see current wind gust speed)